Location: *
(33.8649°S, 62.1526°E)
Time: 03:23:48
(UTC+00:00)

Cosmos 1153 Rocket - Pass Details

Date: 17 January 2021
Orbit: 953 x 1007 km, 82.9° (Epoch: 27 February)

Event Time Altitude Azimuth Distance (km) Brightness Sun altitude
Rises 22:20:18 0° 187° (S) 3,661 8.2 -26.4°
Reaches altitude 10° 22:22:48 10° 187° (S) 2,710 7.4 -26.0°
Maximum altitude 22:29:01 86° 274° (W) 973 4.3 -25.3°
Enters shadow 22:30:45 51° 0° (N) 1,202 4.6 -25.0°
